Theta_e
328 328 329 328 328 327 328 329 331 330 329 327 325 325 326 326 326 325 326 325 326 325 326 326 328 328 328 327 328 327 328 328 327 328 328 329 330 324 325 329 333 336 338 340 345 344 342 341 339 339 338 338 337 336 335 334 335 334 334 334 334 333 331 330 330 330 329 330 329 329 328 328 328 327 326 326 326 326 326 326 326 325 325 323 324
329 327 329 328 327 326 326 329 330 329 328 327 324 325 325 326 325 325 324 324 325 323 324 325 326 325 325 324 325 326 325 325 327 326 328 329 328 324 320 324 330 336 337 338 341 342 340 340 340 339 339 338 337 335 335 334 334 333 333 333 333 332 331 330 329 328 329 328 328 328 328 327 327 327 326 326 326 325 325 325 324 323 324 324 324
331 329 328 328 327 325 326 329 329 329 328 327 325 324 325 326 326 325 324 324 324 324 323 323 323 324 323 324 323 324 323 325 326 325 326 327 327 326 322 320 325 329 333 337 338 340 339 339 339 339 339 337 336 336 334 334 333 333 333 333 332 332 330 329 329 328 328 328 327 327 327 327 326 326 325 325 325 325 323 323 323 323 323 323 323
328 327 326 327 325 323 324 326 327 329 328 327 325 325 325 327 327 326 324 324 324 324 323 323 322 322 323 324 324 323 322 324 325 324 324 324 325 326 327 325 320 325 328 336 339 338 337 337 338 338 338 337 337 336 335 334 334 333 332 333 332 332 331 329 328 328 327 327 327 326 326 326 325 325 324 324 324 323 323 323 323 323 323 323 323
327 327 325 327 325 324 323 325 327 330 330 327 325 325 325 324 323 323 324 324 322 321 321 322 321 321 323 323 323 323 323 323 323 323 324 324 324 325 327 325 325 320 323 327 335 335 335 335 335 337 338 337 337 336 335 335 334 333 333 332 332 332 331 329 328 327 327 327 327 326 325 324 324 324 324 323 322 322 322 322 322 323 323 322 322
325 325 325 325 324 323 324 324 325 329 329 327 326 325 324 324 322 322 320 323 322 320 320 320 320 320 321 321 321 322 321 321 322 322 322 323 322 324 324 326 326 325 325 321 324 328 333 334 334 335 335 336 336 336 335 334 334 333 333 331 332 331 331 330 329 328 327 326 326 325 324 324 323 323 323 322 322 322 322 322 322 322 322 322 323
323 325 324 324 322 321 324 325 327 329 328 327 325 323 323 322 320 320 319 321 322 318 319 319 319 319 320 320 320 321 320 319 318 318 320 321 322 322 322 323 326 325 325 326 316 321 328 332 333 333 333 334 334 335 334 334 333 333 332 332 331 331 329 328 328 327 326 325 325 324 323 323 322 322 322 322 322 322 323 322 322 323 323 322 323
320 322 323 324 322 323 323 322 321 325 327 326 324 322 322 321 320 321 319 319 320 319 319 318 318 318 319 319 320 319 320 320 320 321 319 322 321 320 320 321 323 325 320 325 325 321 321 327 330 331 332 332 332 333 334 334 334 332 331 331 330 331 330 330 328 327 326 324 323 323 323 322 322 322 322 322 323 323 322 322 323 323 323 323 323
320 321 321 323 323 323 323 323 323 324 325 325 323 322 321 320 319 318 321 319 320 319 319 318 317 317 318 318 320 319 320 319 319 320 320 322 321 320 321 322 319 316 324 325 325 323 320 324 327 328 326 329 332 332 331 333 333 332 331 330 331 331 328 327 327 326 324 323 323 322 322 321 321 322 322 323 323 323 323 323 322 323 322 322 323
320 321 320 320 321 322 323 323 321 322 324 323 321 322 322 321 319 319 319 319 319 319 319 318 318 317 317 317 319 319 318 317 317 315 320 321 321 320 321 322 321 322 323 323 323 323 323 322 322 321 318 324 330 331 330 330 331 331 331 331 329 328 327 326 325 324 324 323 323 322 321 322 322 323 323 324 323 323 323 324 324 324 323 323 323
319 320 320 321 322 321 323 322 321 323 322 323 322 321 320 321 319 318 318 319 319 320 320 319 317 317 317 317 318 318 316 316 315 317 318 319 319 318 319 321 321 320 322 321 321 322 322 322 322 322 323 321 328 329 329 329 329 330 329 329 329 328 327 326 325 324 323 323 323 322 322 322 323 324 324 323 323 323 324 323 323 323 323 323 323
316 318 318 318 319 321 321 322 321 321 321 321 321 320 319 319 318 318 316 315 318 320 320 318 317 315 313 316 314 313 313 312 313 314 313 315 316 316 317 318 320 320 321 320 320 321 322 322 318 322 322 321 322 325 328 327 327 329 328 329 330 328 327 325 324 324 324 323 323 323 323 323 324 324 324 323 323 323 323 323 323 324 324 324 323
312 314 315 314 315 318 320 320 321 319 320 320 321 321 321 320 318 317 316 314 315 318 319 319 316 314 314 311 309 309 309 310 311 312 312 311 312 315 315 316 318 320 320 319 320 321 321 320 320 320 320 322 320 318 321 321 321 326 328 328 329 328 327 325 325 324 324 324 324 324 324 324 324 324 324 324 323 323 323 324 324 324 325 325 325
309 311 312 314 314 315 317 318 319 319 320 320 321 317 320 320 319 316 317 315 313 317 318 317 313 311 306 305 305 306 305 307 308 309 309 310 312 314 313 315 317 316 319 319 320 320 319 319 320 319 318 319 320 320 319 318 320 325 327 326 328 328 326 326 325 326 324 324 324 325 324 324 324 324 324 324 323 323 324 324 325 325 325 325 326
306 308 311 312 312 313 314 318 318 316 318 319 319 319 320 319 318 316 314 315 313 316 317 317 312 313 312 308 304 303 303 304 303 303 307 308 310 312 312 315 316 316 317 318 318 318 318 319 319 318 317 317 317 318 318 314 316 314 321 326 327 327 328 327 327 327 325 325 325 325 324 324 324 324 324 324 324 324 325 326 326 326 326 326 326
305 307 310 311 311 311 312 315 316 316 317 317 316 318 320 319 318 316 315 312 312 313 316 317 315 312 305 307 306 306 300 302 305 302 302 306 308 311 311 313 314 313 315 318 316 316 317 317 319 319 318 317 317 317 317 318 313 308 311 316 319 325 327 328 328 328 326 326 325 325 325 324 324 324 324 324 324 326 326 326 326 326 327 327 327
304 305 307 310 310 311 311 312 314 316 316 316 315 317 319 319 319 316 315 313 311 312 314 316 315 316 311 305 302 304 303 304 304 299 301 305 305 308 308 311 312 313 315 315 315 315 315 316 317 318 318 317 317 317 316 317 316 311 314 309 313 319 323 328 329 329 329 328 327 325 325 325 325 325 326 326 326 327 327 327 327 327 327 327 327
303 304 306 308 310 310 310 311 312 313 314 316 316 317 318 319 319 317 315 315 313 312 312 314 315 314 314 313 311 306 304 302 304 298 297 298 301 304 307 308 309 311 313 313 313 313 312 315 316 317 317 317 317 316 317 317 314 316 317 314 312 316 320 324 329 330 330 329 329 327 326 326 326 326 326 327 327 328 328 328 327 327 328 328 328
302 303 305 305 308 309 308 309 310 311 309 314 315 316 316 318 318 318 317 315 314 312 312 313 313 314 314 313 306 306 310 305 303 302 295 298 301 301 303 305 305 307 310 312 312 313 313 313 314 316 316 316 316 316 316 317 313 313 309 308 313 316 318 319 323 327 328 329 329 329 328 327 327 327 328 328 328 328 328 328 327 327 328 328 328
302 302 302 302 303 307 308 307 308 310 309 312 313 316 316 316 316 318 317 315 315 313 312 313 311 310 312 310 306 307 310 310 309 304 302 297 296 298 300 302 304 304 306 309 311 312 312 311 312 313 314 315 316 315 316 316 316 316 312 310 314 316 319 320 320 321 325 327 329 329 329 329 329 328 328 328 327 328 328 328 327 327 328 328 327
301 301 301 302 301 303 306 306 306 307 305 310 312 315 316 316 316 316 316 315 315 315 313 313 312 311 311 308 306 307 308 309 306 301 303 300 297 299 298 299 301 300 300 301 305 310 311 312 311 311 311 313 315 315 314 314 313 315 311 312 315 317 319 320 319 319 320 322 327 328 329 330 329 329 329 328 327 328 328 328 327 326 326 326 326
299 300 300 301 301 302 304 305 305 306 304 309 311 313 315 316 316 316 316 315 315 314 314 314 314 313 312 310 306 305 307 306 303 303 301 304 299 298 299 299 300 297 296 299 301 305 309 310 310 310 312 313 313 313 312 312 312 313 311 309 313 314 316 318 319 319 319 320 321 324 327 328 329 329 329 328 327 324 326 327 325 326 326 326 326
297 298 299 300 299 299 300 301 303 302 303 307 309 312 314 315 315 315 315 314 314 314 313 314 313 312 312 310 308 308 308 306 305 304 303 298 297 300 300 302 302 296 295 297 298 300 304 308 310 309 310 311 312 312 311 312 307 308 305 309 312 314 315 317 317 316 316 318 320 321 324 325 327 328 326 324 324 325 325 324 324 325 325 325 324
296 296 297 297 298 298 298 299 299 302 303 305 309 312 314 315 315 314 314 314 314 312 313 313 313 312 312 310 309 310 310 309 308 307 305 303 302 300 300 302 299 295 294 294 296 298 300 304 305 306 308 308 309 310 310 311 310 303 304 305 310 311 314 315 315 315 315 315 316 317 321 321 321 322 324 324 324 324 324 323 324 324 325 324 323
294 294 294 296 297 296 296 297 298 299 301 302 303 305 311 315 314 314 314 314 313 312 312 312 312 311 311 310 310 309 310 310 310 308 307 306 303 299 300 303 300 295 293 295 290 293 296 298 299 301 301 304 306 307 308 309 308 302 302 301 307 309 311 314 313 314 313 313 313 315 319 321 320 322 325 325 323 323 322 322 324 324 324 323 323
293 293 294 296 296 297 297 297 298 299 300 302 303 303 305 311 314 313 313 314 313 312 312 311 312 312 312 309 307 308 309 310 310 310 306 304 302 302 300 300 300 295 293 294 294 296 295 296 297 298 296 301 303 304 304 305 305 299 299 301 305 306 309 312 313 313 312 312 313 313 313 315 320 320 322 324 323 323 322 322 323 324 323 323 323
294 294 294 295 296 296 297 297 297 298 299 300 302 304 305 307 311 312 312 313 313 311 311 311 311 311 309 308 307 308 308 310 311 310 308 306 305 304 303 298 294 294 294 294 293 301 298 293 297 296 293 296 299 300 301 301 300 298 296 301 303 302 306 310 312 313 311 311 312 312 312 313 316 320 320 319 322 323 323 323 322 323 323 322 322
294 294 294 295 295 295 296 296 297 297 298 299 300 302 303 304 308 311 311 311 313 311 311 311 310 310 309 308 306 307 308 309 311 311 309 308 307 307 306 303 298 293 294 293 294 297 298 295 294 295 293 293 295 297 298 299 300 297 296 300 301 302 304 308 312 312 313 312 311 311 311 312 313 315 316 316 316 316 317 319 320 320 319 320 320
293 293 293 294 295 295 295 295 296 296 296 297 299 301 303 304 306 309 310 312 310 311 311 310 310 310 309 307 307 307 308 309 310 310 310 308 308 308 308 306 304 298 294 293 294 297 296 298 294 294 296 294 294 295 297 297 297 297 299 299 300 302 303 307 311 312 312 312 311 311 311 311 312 313 313 314 314 316 318 318 318 318 318 319 319
293 293 293 293 294 293 294 294 294 295 295 296 298 300 301 303 304 306 310 311 310 310 309 310 310 310 308 308 307 307 307 309 310 310 309 309 308 308 308 309 307 302 298 296 295 297 296 297 296 290 292 291 294 296 295 294 295 298 299 300 300 301 302 304 309 311 311 311 311 311 311 311 311 312 312 312 314 315 317 315 315 315 316 317 319
291 291 291 292 292 292 293 293 293 293 294 294 295 297 300 301 303 304 307 310 310 309 309 308 309 309 307 307 307 307 307 308 309 309 309 308 308 308 307 308 307 306 303 300 295 296 299 296 297 291 292 292 295 294 297 293 296 300 300 300 299 300 300 303 305 309 309 310 311 311 311 311 311 311 310 311 313 314 314 314 313 314 315 316 317
288 291 291 291 291 291 292 292 292 292 292 293 294 296 298 300 302 303 305 309 310 309 308 308 309 308 307 306 305 306 306 308 308 308 308 308 308 308 307 307 306 306 304 301 299 297 300 300 296 293 291 291 294 296 295 294 297 296 297 298 299 298 302 301 303 306 307 309 310 310 310 310 310 310 310 310 313 312 312 312 312 313 313 314 315
285 286 290 291 291 291 291 291 291 291 291 291 293 294 296 298 300 301 303 307 309 309 307 307 308 307 306 306 305 305 305 306 307 307 307 307 307 307 307 307 305 303 304 300 299 295 294 296 294 293 294 294 292 294 295 295 296 296 296 295 297 297 297 301 300 301 305 307 308 309 309 309 310 310 310 310 310 311 310 311 311 310 311 313 313
285 285 287 291 290 290 290 291 291 291 291 292 292 293 295 296 298 300 302 304 308 308 308 307 306 307 306 305 304 304 303 305 305 306 306 305 305 305 305 306 304 301 302 301 299 296 292 291 290 292 293 296 293 292 295 295 295 295 296 296 296 295 296 296 298 299 303 305 307 308 309 309 309 309 309 309 309 309 310 310 309 308 309 311 311
283 284 285 288 290 290 290 290 291 291 291 291 291 293 294 295 297 299 301 302 306 307 307 307 306 307 305 304 304 304 304 303 303 305 305 305 305 305 305 305 304 303 300 300 297 294 291 290 291 290 291 292 293 292 293 295 295 296 296 295 294 294 293 293 295 296 302 305 307 307 308 308 308 308 308 308 308 308 308 308 307 307 308 309 309
280 281 283 284 287 289 289 289 290 290 290 290 291 291 293 294 296 298 300 301 304 308 307 307 307 306 305 304 303 303 302 302 302 304 304 305 304 304 304 304 305 303 301 299 297 294 292 289 289 291 291 291 290 291 294 294 295 295 296 293 293 293 292 292 293 294 300 305 305 306 306 307 307 307 307 307 307 307 307 306 306 306 306 306 306
279 279 280 282 284 287 289 289 290 290 290 290 291 291 292 293 294 297 299 301 303 307 308 307 304 306 306 305 303 302 302 302 301 302 303 303 304 303 303 303 303 303 301 299 295 295 293 291 289 289 290 291 292 293 294 294 293 292 292 293 293 292 291 289 291 294 299 302 303 303 304 305 305 306 306 306 306 306 306 306 306 305 304 304 303
278 278 279 280 282 283 286 288 289 289 290 290 290 290 291 292 293 295 299 301 303 306 308 307 306 306 306 305 303 303 302 301 301 302 302 302 302 302 302 302 302 301 300 297 295 294 294 292 290 288 289 290 290 292 294 295 293 292 291 290 289 289 290 291 290 293 294 296 297 299 301 301 302 304 304 305 305 305 305 305 304 303 301 301 302
276 277 278 279 280 281 283 287 288 289 289 290 290 290 290 291 292 294 297 300 303 306 308 308 307 307 307 306 304 304 303 303 302 301 301 301 302 301 301 301 301 300 299 298 293 292 292 290 290 290 290 290 291 290 292 294 294 294 291 290 289 287 288 291 291 289 291 292 295 298 297 297 299 300 301 302 303 303 303 303 302 301 299 300 301
275 276 276 277 278 280 282 286 288 288 289 289 289 290 290 290 291 293 297 299 302 305 307 308 308 307 307 307 306 305 304 304 303 302 302 301 301 299 300 300 299 298 297 296 292 291 291 290 289 288 288 288 288 289 290 291 290 290 292 292 290 288 289 289 290 291 288 291 292 292 296 297 298 299 300 301 301 302 301 300 299 298 297 299 300
275 275 276 277 278 278 280 284 286 287 288 289 290 290 289 290 291 292 296 299 301 304 307 307 308 307 307 307 306 306 302 300 298 299 300 300 301 298 298 298 296 296 296 295 293 291 291 290 289 290 288 288 289 289 288 289 289 289 291 292 290 290 289 289 287 288 290 291 289 290 291 292 292 292 292 293 294 297 297 296 296 295 296 299 300
274 275 276 277 277 278 279 281 285 287 288 289 289 290 291 290 290 291 293 297 301 304 305 306 306 306 307 307 305 300 298 297 296 297 298 298 298 300 299 297 294 295 294 293 292 291 290 289 288 288 287 287 287 289 289 289 291 291 290 289 287 286 287 287 287 285 289 291 290 289 289 289 291 289 290 291 291 291 292 292 293 294 296 299 299
274 275 276 276 277 278 279 280 281 284 286 288 290 291 292 292 291 291 292 295 299 303 304 305 304 304 306 306 307 300 297 296 296 296 298 297 297 297 297 296 296 295 293 292 292 291 290 289 288 289 288 287 287 289 290 290 290 289 289 289 288 288 287 286 286 286 287 291 290 289 287 287 290 289 289 289 289 288 288 289 294 295 297 299 299
274 275 275 276 277 278 279 280 282 283 285 288 290 291 291 292 291 290 291 293 296 301 303 305 305 304 305 305 305 304 302 300 300 298 297 297 296 296 296 295 295 296 295 294 292 291 290 290 288 288 289 288 288 289 290 290 289 289 289 289 288 288 287 287 287 286 289 290 289 288 287 284 288 289 288 288 288 288 288 291 295 296 298 298 298
274 275 275 276 277 278 278 279 280 283 285 288 290 291 291 291 291 291 290 292 294 297 302 304 305 305 304 304 304 305 304 296 296 301 300 298 295 296 295 294 294 295 296 296 295 293 292 291 289 289 289 289 288 289 290 290 290 289 288 288 288 288 289 288 288 288 288 290 289 287 286 286 286 287 287 287 287 287 289 294 296 296 298 298 298
273 275 276 276 277 277 278 278 280 282 284 287 289 290 291 291 291 291 290 291 294 297 301 303 304 304 304 304 304 303 303 299 300 301 300 299 297 296 295 295 295 294 294 294 294 293 292 292 291 290 290 291 290 290 290 291 289 289 288 288 288 288 288 289 289 288 289 290 289 287 284 285 286 287 286 286 287 287 287 291 295 296 297 298 298
272 274 276 276 277 278 278 278 279 281 283 287 289 290 290 291 291 291 290 292 294 297 301 303 303 304 304 305 304 304 303 301 301 300 300 298 295 295 294 294 294 294 295 294 294 293 292 293 292 292 291 291 291 290 290 291 290 291 290 289 289 288 287 286 285 286 287 289 287 287 283 285 286 286 286 285 286 287 285 291 294 295 296 297 297
271 275 277 278 278 278 280 280 280 281 282 286 288 289 290 291 291 290 289 290 293 296 299 301 302 303 303 303 302 302 303 301 298 298 298 298 295 294 293 293 293 295 296 294 294 294 294 294 293 293 292 292 292 290 290 290 289 289 287 287 287 287 287 286 283 284 286 288 287 286 281 283 286 286 285 283 285 285 284 286 294 294 295 296 297
270 273 276 278 279 280 280 282 282 282 283 285 287 289 290 291 290 289 289 290 293 296 299 300 301 301 301 302 302 302 302 301 297 298 298 297 294 293 293 291 291 292 293 293 294 294 294 294 294 294 294 295 295 294 294 294 291 290 288 288 287 287 286 284 281 283 285 287 287 287 283 282 284 285 282 282 285 285 284 285 288 294 295 296 296
270 274 277 278 279 280 281 282 283 283 284 286 288 289 290 291 290 289 289 291 292 294 297 299 300 300 299 296 298 301 301 301 297 298 298 295 294 293 292 291 290 291 292 291 292 293 293 293 293 293 294 294 294 294 295 294 293 291 290 288 288 288 287 286 283 283 285 286 287 287 283 282 284 283 279 278 280 280 283 283 285 289 294 294 296
270 272 276 279 280 281 281 282 284 285 285 286 288 290 290 291 291 290 291 292 293 294 296 297 297 299 298 296 296 299 301 299 298 298 298 296 294 293 293 292 291 291 293 292 291 290 290 290 291 291 291 292 292 292 291 293 292 291 292 291 289 288 287 286 285 284 283 284 287 287 284 282 283 284 282 278 276 276 282 283 285 287 288 289 292
Wind_Speed
9 9 9 9 8 7 8 8 9 8 8 8 7 7 7 6 6 6 5 5 6 4 7 9 9 8 7 8 8 5 5 5 4 5 6 6 5 5 9 8 9 9 7 20 27 28 31 30 30 29 28 27 24 23 25 26 24 24 23 22 23 22 19 18 17 19 19 20 21 20 20 21 20 19 20 20 19 19 19 18 18 18 17 17 16
9 8 9 10 9 8 7 8 10 9 9 9 8 8 7 6 5 6 7 6 5 4 5 6 8 7 6 4 5 6 5 4 4 4 5 5 5 5 9 8 9 9 7 11 22 28 31 31 29 27 27 27 27 26 26 25 25 24 23 22 23 23 21 21 20 20 20 20 21 21 21 21 20 20 20 19 20 19 19 18 18 18 18 17 16
10 9 8 11 11 10 9 8 10 10 9 9 8 8 7 8 8 8 8 8 9 9 6 5 5 7 7 8 6 4 3 4 6 5 5 5 5 5 6 10 9 9 8 7 18 23 28 30 29 29 27 29 28 28 28 27 26 25 25 25 25 23 24 22 22 21 21 21 21 21 20 20 20 19 19 19 20 19 17 17 17 18 18 17 17
11 10 9 9 10 11 10 9 10 10 10 10 9 8 8 8 8 7 6 8 7 8 9 10 8 8 6 7 7 6 4 3 5 5 5 4 4 4 5 6 9 11 9 6 14 16 22 26 31 30 29 30 29 29 28 26 26 26 25 25 25 24 24 24 23 23 23 22 22 22 21 20 20 19 19 19 19 19 18 18 18 18 18 19 19
10 13 9 10 12 13 13 12 11 11 10 11 11 7 9 7 6 5 6 8 7 6 4 7 9 10 11 8 6 5 5 3 4 5 5 4 4 4 4 5 5 11 12 8 10 15 16 17 21 27 29 27 28 28 28 27 26 25 26 26 26 26 25 25 23 24 23 23 22 22 21 20 20 20 20 19 18 18 18 18 18 18 19 19 18
11 9 9 12 12 12 13 12 12 13 12 11 11 9 9 8 8 7 8 9 10 8 7 7 7 8 9 9 7 6 4 3 4 4 5 5 3 4 4 4 5 5 7 11 10 8 13 14 16 21 25 27 28 28 27 27 26 26 26 26 26 26 25 25 24 24 24 23 23 22 20 20 20 20 19 18 18 18 19 19 20 20 19 19 18
12 10 11 14 9 9 11 11 13 15 13 12 11 10 10 11 9 7 6 8 9 8 8 7 8 10 10 9 9 7 3 4 3 3 4 4 4 4 4 4 5 6 7 7 10 13 13 14 15 15 18 23 28 28 27 26 26 26 26 26 26 26 26 26 25 24 23 22 22 21 20 20 20 19 19 18 18 19 20 20 20 19 18 19 19
13 13 12 12 10 12 14 10 5 7 13 13 12 12 10 10 10 10 9 8 9 9 8 7 6 8 8 9 7 9 9 6 6 5 3 4 4 4 4 4 5 7 7 8 8 8 11 13 14 15 19 22 25 27 27 27 26 26 26 25 26 26 26 26 25 25 23 21 21 21 21 20 19 19 19 19 20 20 21 21 19 18 18 18 17
13 13 15 15 12 12 12 11 12 11 8 12 14 12 12 11 10 9 12 11 11 11 10 9 7 6 7 9 8 9 8 8 7 6 6 6 6 5 5 5 4 8 8 9 9 8 12 17 16 17 16 18 20 23 25 26 27 26 25 26 26 25 24 24 24 23 23 23 23 23 21 20 19 20 20 21 21 21 20 20 19 17 16 16 15
13 12 13 15 12 11 11 14 8 6 10 10 12 12 13 13 13 11 11 11 11 11 12 9 9 7 6 7 8 8 7 7 6 5 7 8 7 6 6 6 5 7 8 7 8 9 9 13 20 19 17 16 21 23 23 25 26 24 25 24 25 25 24 24 25 24 23 23 22 21 20 20 20 21 21 20 20 21 20 18 17 16 15 14 13
12 12 11 13 13 14 15 13 11 11 11 11 13 14 14 14 16 14 12 12 13 13 13 11 10 8 8 8 7 7 6 6 6 6 6 7 8 7 6 7 6 6 9 7 7 8 10 8 9 11 14 18 18 24 24 22 22 24 24 23 25 25 25 24 24 24 24 23 23 21 20 20 21 21 20 21 21 20 19 19 18 16 14 12 12
12 12 11 10 12 12 12 13 10 11 13 14 16 16 17 18 17 17 14 9 9 10 10 10 8 8 7 6 4 4 4 4 4 4 4 5 6 6 7 7 8 8 9 8 7 9 9 9 8 10 10 15 16 17 21 22 21 22 24 25 25 25 25 24 25 24 24 24 23 22 21 23 22 21 20 20 19 19 19 17 16 14 12 12 11
12 12 12 10 10 12 13 11 12 10 11 13 14 21 21 19 18 15 18 14 11 10 10 10 11 8 7 6 5 3 4 4 5 5 5 4 4 6 6 7 8 9 8 7 9 10 9 9 9 8 9 11 13 15 16 14 16 19 22 22 24 26 26 25 25 25 24 23 22 22 21 22 23 22 21 20 19 17 16 15 14 12 12 12 11
11 13 13 11 10 13 14 13 12 11 13 16 20 17 21 19 17 15 15 19 14 15 13 12 11 13 11 7 5 5 4 3 3 3 4 4 5 6 5 6 8 7 8 7 9 10 9 8 9 9 7 8 9 10 11 11 10 18 20 22 23 25 26 25 25 24 23 22 22 23 23 23 23 22 20 18 17 16 15 14 13 12 11 10 9
11 11 11 11 9 12 15 15 12 10 12 13 14 18 19 21 20 19 15 12 12 14 17 17 15 11 11 11 9 9 2 3 3 2 0 3 4 6 6 6 8 6 8 8 7 8 9 9 10 9 9 8 8 9 9 12 10 15 17 19 22 26 26 26 24 23 23 23 23 23 23 22 21 20 19 18 17 16 15 14 13 12 10 9 8
13 12 11 11 8 11 13 14 14 10 11 12 11 18 20 18 19 20 20 16 12 14 16 17 13 15 13 14 12 11 9 9 10 1 3 2 4 6 5 6 7 6 6 9 8 7 8 8 11 10 10 9 8 9 9 8 16 13 17 17 19 23 26 25 25 24 23 23 22 22 21 21 20 19 18 17 16 15 15 14 12 10 10 9 8
13 13 11 11 8 7 10 13 13 12 9 9 10 11 15 20 22 19 21 20 17 15 14 15 15 18 15 9 5 10 15 12 13 1 1 2 3 5 5 6 9 8 8 7 7 8 9 9 9 9 10 9 9 9 8 10 11 8 14 17 19 21 23 26 25 24 23 23 22 21 21 20 19 18 17 17 16 15 14 12 11 11 9 9 9
12 13 12 11 10 7 9 12 13 12 11 9 10 11 15 15 18 20 22 21 20 16 15 14 15 17 13 17 19 16 13 9 14 9 1 2 2 1 5 6 6 9 8 8 8 7 6 9 9 9 10 9 9 10 10 9 9 10 10 14 19 19 20 23 25 24 24 23 22 21 20 20 19 18 17 16 15 14 13 11 10 10 11 10 11
9 11 11 11 12 10 8 9 11 12 10 12 10 11 12 17 18 19 20 18 18 19 21 18 12 13 14 11 2 2 12 20 17 10 8 2 3 3 4 6 5 6 10 9 10 9 7 8 9 9 9 9 10 10 9 10 13 13 15 18 20 20 19 20 21 23 24 23 22 21 20 19 19 18 16 15 14 13 11 10 10 11 12 13 13
7 9 11 10 11 11 8 8 9 12 12 13 14 12 10 11 11 17 17 17 19 19 20 19 18 15 15 9 2 1 14 18 21 21 19 14 6 2 2 5 5 4 6 10 11 11 10 7 8 8 8 9 10 10 10 10 10 11 12 18 19 19 18 19 19 19 19 20 22 21 20 19 19 18 16 14 14 13 12 12 12 14 17 16 15
5 7 9 10 10 10 10 8 8 9 8 13 16 15 14 15 15 13 17 18 18 18 18 19 19 18 16 12 5 6 12 12 9 7 13 15 10 11 7 1 3 3 3 4 7 10 11 11 9 9 8 8 9 10 9 9 9 9 11 17 16 16 16 17 19 18 19 19 20 21 21 19 18 16 15 14 14 14 14 13 13 15 16 16 15
5 5 8 9 9 8 7 7 8 8 7 13 17 18 15 15 18 16 16 19 16 16 18 19 19 17 19 15 11 8 11 10 9 13 8 17 18 14 12 14 13 5 3 5 5 6 8 10 10 8 8 9 9 9 9 10 9 9 11 16 14 12 11 11 12 13 13 13 15 16 17 18 17 16 15 16 15 15 16 17 16 15 14 15 15
5 6 6 8 9 6 6 8 10 8 7 11 16 16 14 14 14 18 17 18 15 17 17 18 18 16 18 15 15 17 19 20 17 15 15 10 8 14 14 12 13 9 3 3 4 4 6 7 11 9 9 9 9 10 10 10 11 12 16 15 15 13 13 12 12 11 11 11 12 15 16 17 19 19 18 16 16 15 15 15 15 15 15 16 15
6 6 5 7 8 6 3 5 7 10 9 9 12 16 15 14 14 13 13 16 15 16 17 18 20 17 20 17 13 12 12 13 13 15 14 15 16 13 12 9 7 3 2 2 3 4 4 6 7 9 9 8 8 9 10 11 11 16 14 15 15 15 13 13 14 12 12 11 11 11 10 10 11 10 11 14 16 17 16 15 15 16 16 16 15
6 6 6 7 7 7 6 7 8 9 8 9 11 15 15 15 14 18 18 17 16 17 16 19 21 18 18 17 15 13 13 11 13 14 11 10 11 13 10 13 15 8 3 5 2 2 2 2 3 4 8 8 7 8 9 11 11 15 14 14 17 15 14 12 12 11 10 9 9 8 8 9 12 12 12 13 15 16 17 16 16 16 17 16 16
7 7 7 6 7 7 5 4 6 8 8 9 10 10 15 15 15 14 16 17 16 19 18 18 19 22 18 16 12 13 12 12 14 13 13 15 14 17 14 7 8 8 3 3 4 6 1 0 0 1 5 7 8 9 10 9 10 15 14 9 11 13 13 11 10 10 9 9 8 9 9 10 11 12 11 13 14 16 16 16 16 17 16 16 16
7 7 5 6 8 7 6 5 5 7 8 8 8 9 12 15 13 16 16 14 16 16 17 19 19 20 17 17 15 14 13 13 14 13 14 16 16 16 16 15 7 6 6 2 3 11 10 1 2 2 5 5 5 5 8 8 10 15 14 9 7 11 11 11 10 10 9 10 10 10 10 11 12 13 12 11 11 12 15 17 18 18 17 17 16
7 6 6 6 7 7 6 5 5 6 7 7 8 8 10 14 15 13 17 14 17 20 17 19 21 22 19 17 13 14 14 14 14 14 13 13 14 15 16 17 18 12 7 6 7 7 8 9 1 2 4 6 6 7 8 11 9 14 13 8 8 8 12 12 12 11 11 10 11 11 12 12 13 14 13 12 11 12 13 14 14 14 14 14 14
7 6 7 6 7 7 6 6 5 6 6 6 7 9 10 11 13 13 14 15 15 19 16 18 17 20 17 20 16 13 12 12 12 13 13 11 13 15 16 18 18 18 13 13 12 10 7 7 9 5 4 3 5 5 7 7 10 12 6 7 8 7 10 13 13 12 11 12 11 12 12 13 14 15 14 13 12 12 15 14 12 13 13 13 13
7 7 6 7 6 6 6 6 5 5 5 5 6 8 9 10 11 13 12 14 14 13 16 17 18 18 17 17 15 14 14 14 15 15 13 13 13 14 15 14 14 17 14 16 11 6 8 5 3 6 5 5 5 5 5 5 11 11 7 7 7 6 10 12 12 11 11 12 12 12 13 13 14 15 14 13 13 15 15 15 17 17 17 17 17
11 8 7 7 7 6 5 6 5 5 4 4 6 7 9 10 10 11 13 13 13 14 14 15 16 17 18 19 16 15 15 16 15 14 14 14 14 13 13 12 13 16 15 12 11 5 8 11 5 4 10 7 6 6 5 5 9 10 8 7 6 9 12 9 11 11 11 12 12 12 13 14 14 15 15 15 17 18 18 18 18 18 18 18 19
17 14 9 8 7 7 6 6 5 5 4 3 4 7 8 9 9 9 13 14 16 16 15 16 13 15 18 19 17 15 14 14 15 15 15 14 14 13 13 13 13 13 13 12 14 11 9 12 9 8 7 6 8 9 7 6 7 10 6 7 7 11 8 5 10 12 11 12 12 13 14 15 16 17 17 17 19 19 19 18 18 18 17 17 18
13 16 15 12 8 7 7 6 6 5 5 3 3 6 8 10 9 9 12 15 15 16 16 16 17 18 19 19 18 17 15 15 14 14 14 14 14 13 13 13 12 11 14 12 14 9 4 4 9 11 11 9 5 6 9 8 8 6 7 6 7 7 6 6 6 11 11 11 12 14 15 16 17 18 18 18 18 19 19 18 17 17 17 17 18
12 13 16 15 12 7 7 7 6 6 5 4 2 3 8 10 10 8 9 15 15 15 15 19 18 17 19 20 19 16 16 18 16 15 15 14 14 14 14 15 14 10 11 14 12 12 9 6 6 6 8 11 8 5 10 10 7 7 9 7 5 6 7 6 7 6 11 11 12 14 15 17 18 18 19 18 18 19 19 18 17 17 17 17 16
13 11 14 16 17 10 8 8 7 5 5 4 3 3 6 10 12 10 10 13 17 15 17 19 20 19 20 19 19 18 15 16 16 16 15 15 13 15 15 14 14 12 9 9 11 12 14 8 9 10 8 5 7 7 6 6 6 8 10 8 8 6 4 6 7 5 10 12 13 14 16 17 18 18 19 19 18 18 18 18 18 17 16 16 17
16 14 13 16 17 14 10 9 7 5 4 3 4 3 5 8 12 13 11 12 16 15 16 16 19 20 20 19 19 18 18 19 17 16 15 15 14 13 14 13 14 15 11 10 10 11 10 12 8 12 10 10 3 4 6 7 9 8 8 7 7 7 6 6 7 6 8 13 14 15 16 17 18 18 19 19 18 18 18 18 17 17 16 16 16
14 14 14 14 16 16 14 11 9 6 4 3 4 5 6 7 11 13 12 12 16 18 17 17 17 19 20 21 20 18 17 17 15 15 15 17 15 14 15 13 13 13 12 11 10 11 13 14 10 5 9 7 7 11 11 10 7 6 5 8 8 8 6 5 5 6 10 13 14 15 16 17 18 18 18 18 18 18 18 18 17 17 17 17 17
17 14 13 13 13 16 16 13 11 9 6 5 5 5 7 8 10 12 12 13 16 19 17 17 18 19 18 18 19 19 19 19 18 17 16 18 15 15 15 14 13 12 14 12 12 12 13 14 15 10 8 11 8 7 10 12 13 10 7 6 5 5 7 7 4 4 4 6 6 8 12 14 16 18 18 18 18 18 18 18 18 18 17 17 17
18 16 14 15 15 15 16 15 14 12 10 7 6 6 7 8 11 13 13 13 16 18 17 18 19 20 21 21 20 20 21 20 20 18 17 17 15 16 16 15 14 13 14 13 13 14 14 14 12 14 13 9 13 13 8 9 12 14 15 10 6 2 4 9 8 3 4 5 5 9 9 9 12 12 15 17 18 19 19 19 18 18 18 18 18
18 17 16 15 15 14 15 14 13 11 10 10 8 7 7 8 10 13 13 13 15 18 18 19 20 20 19 20 22 22 22 21 20 19 19 17 15 14 14 14 14 15 14 13 12 13 13 14 14 12 11 12 5 4 8 10 9 4 7 11 13 10 9 5 6 10 4 7 7 6 8 10 10 13 15 15 17 18 19 18 19 18 19 19 19
15 16 12 14 17 17 16 16 14 12 12 11 8 7 7 8 9 13 14 13 15 17 19 19 19 20 20 21 21 21 22 23 26 23 22 20 16 16 15 15 15 15 14 13 13 12 12 13 11 11 12 12 13 14 12 11 13 14 10 9 10 10 10 9 3 2 6 10 7 7 6 8 10 8 8 7 8 13 14 16 15 19 19 19 19
17 16 15 14 16 17 17 17 15 13 11 10 10 14 12 10 10 12 14 14 14 16 17 18 19 20 21 19 18 27 28 27 26 27 26 24 22 18 16 15 15 15 16 15 14 14 14 14 14 14 13 13 12 14 15 13 12 11 12 10 11 9 8 7 5 3 6 10 10 10 7 5 9 8 8 9 8 9 9 10 10 12 17 20 20
17 17 14 15 17 15 17 15 16 15 13 11 16 16 16 18 13 12 13 14 14 15 16 18 17 18 18 20 18 21 23 24 23 28 27 26 24 23 21 20 17 17 16 17 15 15 15 15 14 14 15 15 15 15 16 16 14 16 15 14 14 14 14 14 13 5 5 11 12 11 9 7 9 11 9 8 9 8 7 9 11 16 19 18 18
17 15 17 15 14 15 15 15 14 14 13 15 20 18 17 18 17 13 12 13 13 13 13 17 17 17 18 18 16 15 17 20 19 20 24 27 24 23 24 23 24 24 23 20 17 15 16 15 15 16 15 16 16 15 14 14 13 11 13 13 14 16 15 14 12 14 11 11 10 10 8 3 5 10 9 9 9 9 9 11 16 15 18 20 20
16 16 16 15 15 14 15 17 16 15 13 15 19 19 18 19 20 18 12 13 13 13 13 15 18 18 18 18 16 15 15 25 21 19 19 21 24 26 24 23 23 24 23 25 26 23 19 19 19 16 18 17 18 17 17 18 16 17 15 14 14 15 16 16 14 12 12 15 13 11 11 9 7 8 10 8 8 8 9 14 19 18 20 20 21
17 17 15 16 15 14 15 16 16 15 15 15 20 20 20 20 21 19 14 14 14 14 14 15 16 17 19 19 18 17 16 17 17 19 18 18 18 18 18 16 16 20 24 26 24 22 19 16 17 19 16 16 20 18 16 17 19 18 17 16 16 16 18 20 15 11 12 15 18 13 9 9 10 10 11 9 8 8 9 12 18 18 19 22 21
16 16 14 15 14 15 16 16 16 16 14 19 20 20 21 21 22 20 14 14 13 13 14 16 17 18 19 20 21 21 19 18 17 21 20 19 18 18 19 18 16 15 16 16 16 15 14 12 15 15 14 11 8 10 12 12 16 14 15 15 15 11 6 8 10 9 9 10 7 10 13 13 10 10 10 8 8 8 6 11 19 19 20 22 23
15 15 14 13 13 14 15 15 16 17 15 21 23 22 23 22 23 15 13 14 14 13 13 14 16 17 17 17 17 17 19 20 22 27 24 20 20 21 21 18 16 15 15 16 19 18 17 15 14 15 15 16 17 16 16 15 12 10 11 11 10 10 11 9 8 8 11 10 10 12 6 10 11 14 10 7 8 9 8 8 14 21 20 21 22
15 16 15 12 13 13 15 15 16 15 15 18 23 24 24 24 19 13 13 13 13 13 13 13 14 15 15 18 18 17 19 19 24 28 27 25 20 22 20 18 15 14 13 10 18 22 21 20 19 19 19 19 20 21 24 25 18 15 12 11 12 12 12 11 7 9 12 13 11 10 7 10 10 9 8 7 10 9 9 10 9 15 21 19 22
16 15 13 12 12 12 14 15 15 15 14 16 22 23 24 24 20 14 13 12 12 12 12 12 11 13 16 22 21 18 18 19 27 29 29 24 20 21 20 19 18 17 14 11 10 13 20 20 20 20 20 20 21 22 24 24 25 21 18 17 15 14 15 15 15 12 9 11 12 8 8 8 10 6 7 4 3 3 8 7 8 10 18 17 20
14 15 16 13 12 12 12 14 20 20 16 16 20 22 23 22 18 13 12 12 12 12 11 11 10 11 13 18 24 21 22 22 31 30 31 26 21 21 21 21 21 20 18 15 15 13 12 12 12 14 14 18 16 16 18 27 26 22 19 18 15 16 15 12 9 8 7 7 10 12 11 8 12 10 11 7 4 4 6 9 10 10 10 10 11
Wind_Direction
232 221 211 212 214 195 184 189 174 172 170 170 161 165 167 158 151 145 137 130 132 136 150 157 163 169 177 177 169 148 149 150 136 127 121 125 120 95 101 108 106 123 161 190 164 160 153 150 149 148 150 144 143 144 143 143 143 145 147 145 137 136 132 126 126 132 130 126 124 125 125 127 125 124 122 123 124 120 114 112 112 110 110 114 113
241 232 212 214 205 194 187 181 170 172 171 172 168 169 177 175 162 155 140 138 129 130 142 149 159 157 151 155 152 151 152 156 129 111 125 134 119 116 97 98 94 103 124 187 181 163 153 149 151 151 147 146 148 156 147 144 142 143 141 139 136 135 137 135 129 133 133 127 126 127 129 128 127 125 126 124 116 113 116 117 117 115 117 118 115
251 223 212 211 199 195 190 178 173 176 173 176 172 170 177 181 178 177 169 166 163 153 149 150 156 150 146 149 141 133 138 154 114 113 101 119 130 150 115 102 92 109 110 170 189 170 160 156 153 153 150 154 153 150 147 145 145 145 143 140 140 137 135 137 137 134 135 134 131 132 132 130 127 125 128 124 123 120 119 122 119 115 115 115 114
268 257 224 218 209 199 193 179 178 175 176 174 172 166 176 184 186 185 181 174 172 169 163 163 162 143 140 142 147 152 145 139 117 111 120 120 127 142 147 119 103 101 89 136 156 164 168 159 154 153 151 150 150 147 146 145 146 146 145 144 141 138 136 137 137 136 136 136 135 133 132 131 130 131 131 127 126 125 124 119 119 118 117 116 116
251 251 252 228 212 206 197 189 177 176 175 170 170 157 168 178 185 175 174 173 169 162 160 163 158 154 149 153 155 157 145 128 111 127 133 127 124 134 149 135 123 115 113 89 142 162 172 162 157 149 150 151 149 147 149 147 148 148 146 146 143 142 142 142 143 140 138 138 136 134 133 136 137 131 126 124 124 123 124 125 121 120 118 118 117
259 254 250 257 245 222 208 195 181 175 173 167 165 158 165 172 176 175 173 171 173 165 163 168 171 161 155 149 139 137 132 106 122 136 135 129 129 128 132 132 128 131 126 124 111 118 153 158 152 156 152 155 148 146 150 153 151 149 149 148 144 144 145 146 144 142 142 143 141 138 137 136 132 129 126 126 127 128 126 125 123 121 121 119 119
264 247 236 245 247 267 262 214 184 175 174 170 163 163 165 170 169 170 163 160 168 168 164 168 172 171 165 161 162 147 122 122 114 110 124 124 118 123 115 127 132 130 129 132 122 140 155 147 153 153 150 148 148 148 152 153 151 150 151 150 148 147 147 147 146 145 145 143 140 137 137 136 135 131 130 131 131 129 128 128 125 123 121 120 120
275 269 253 242 226 234 241 259 277 204 170 168 161 159 163 165 176 170 162 163 162 166 168 166 175 173 160 158 160 163 175 171 155 146 162 136 131 133 123 133 141 132 125 127 136 157 158 143 140 145 149 152 149 151 152 150 150 152 153 152 150 150 151 149 147 146 142 137 138 139 138 137 134 134 135 135 134 132 132 129 127 126 123 122 122
292 281 276 264 239 230 244 239 216 208 203 179 168 164 162 169 175 180 172 165 169 164 168 167 166 168 161 160 159 157 167 166 163 153 159 148 148 144 131 144 138 129 128 135 141 147 166 150 144 141 145 148 148 151 151 151 151 154 156 154 153 153 150 147 145 143 142 141 143 142 141 140 140 140 139 137 135 132 131 129 129 127 126 126 125
297 289 278 269 260 247 244 237 235 222 198 182 177 170 170 168 173 181 179 166 170 168 167 167 163 161 161 168 163 158 159 154 152 158 163 155 151 148 152 147 141 131 129 130 133 148 159 152 144 139 141 160 150 144 150 154 151 154 156 156 153 151 150 148 145 144 144 145 145 144 144 145 143 143 141 139 137 136 133 131 131 128 125 124 122
302 300 295 285 267 250 244 245 222 216 208 189 181 176 175 172 172 176 185 177 172 173 170 165 165 163 165 172 173 159 150 146 151 160 161 157 149 142 144 149 139 133 134 135 144 143 146 144 143 137 151 156 152 151 151 153 151 157 160 157 155 152 150 147 146 147 147 149 149 148 148 147 145 143 141 140 139 136 135 134 132 129 127 127 125
312 305 300 294 289 273 254 237 223 208 202 206 180 177 179 174 175 170 173 174 173 168 162 159 157 157 157 155 146 133 123 126 142 154 138 149 142 133 142 145 136 138 141 140 143 143 142 143 144 143 145 149 152 149 149 156 161 164 163 159 155 152 150 149 149 149 150 150 149 149 150 148 146 144 143 143 141 140 138 135 132 130 132 136 135
313 313 308 307 303 294 278 259 237 220 206 211 195 174 177 177 172 172 167 167 173 165 165 158 155 155 144 122 82 66 97 135 153 147 149 147 142 139 145 141 141 141 146 146 141 145 143 141 140 140 148 148 149 150 148 147 156 164 159 157 156 152 153 152 153 153 152 151 151 152 151 149 148 147 146 145 143 141 138 136 135 135 135 129 131
310 308 304 302 311 310 295 268 244 225 213 209 195 180 174 178 171 170 177 169 174 170 166 153 175 169 150 130 79 52 41 90 111 166 155 162 159 144 153 146 142 139 143 142 143 145 143 142 142 140 143 146 152 153 145 139 158 159 159 160 159 159 155 155 155 154 154 153 153 153 152 151 149 148 147 146 145 143 142 141 140 139 136 137 136
307 300 300 302 317 316 306 288 258 232 224 216 197 182 176 178 175 169 173 181 170 174 168 178 171 163 153 139 164 151 151 120 44 33 109 184 168 149 151 149 146 149 148 142 145 148 147 147 144 143 141 142 145 145 145 145 156 162 168 168 166 160 156 157 156 154 154 154 153 151 150 150 149 149 148 148 147 148 147 145 143 142 148 152 157
310 309 303 303 308 302 303 295 276 252 227 218 212 191 177 179 181 176 168 169 175 184 184 179 166 156 169 184 174 167 160 190 172 175 344 231 179 159 144 149 153 152 159 147 151 149 149 149 148 149 147 149 146 143 145 150 156 170 164 165 162 159 158 157 156 155 155 153 151 150 150 150 149 150 151 151 151 149 148 149 152 156 152 154 161
308 310 308 298 291 289 292 288 284 273 253 232 217 219 192 178 180 175 177 171 176 174 185 183 179 182 161 138 134 187 197 169 147 58 53 149 200 173 148 145 154 162 157 147 148 150 148 148 146 148 149 150 147 146 147 154 150 162 163 164 163 160 158 157 157 157 155 153 151 150 151 151 151 152 153 153 152 151 153 156 159 161 159 159 154
305 308 307 301 289 281 283 290 283 278 274 252 238 210 203 191 184 179 181 178 167 168 178 191 188 185 196 185 175 177 160 140 154 180 60 329 122 156 163 158 163 156 152 145 147 147 146 142 146 152 151 148 148 144 146 150 150 160 160 166 164 161 160 158 158 158 157 154 152 151 152 152 153 154 154 155 156 158 156 155 158 158 158 149 138
296 301 304 305 299 287 272 278 284 282 275 273 256 234 218 198 183 183 180 174 169 170 178 182 184 198 196 206 349 325 166 149 181 141 152 178 172 157 182 162 155 158 149 155 151 148 150 145 152 158 152 147 145 142 140 145 151 157 164 169 166 167 165 161 159 159 157 155 155 154 154 154 155 156 158 161 162 159 160 160 157 155 152 144 147
289 296 300 302 297 290 273 265 277 284 278 262 256 248 230 219 202 184 180 174 175 178 178 175 178 191 197 205 252 162 166 180 167 165 172 161 170 17 78 140 135 162 160 156 158 156 150 152 152 158 152 147 144 143 142 143 145 148 153 164 166 168 167 162 160 161 159 158 158 158 158 159 161 162 162 163 160 161 160 161 161 155 146 149 153
274 285 292 296 295 289 285 272 268 276 279 274 258 249 233 211 201 195 182 183 181 179 173 178 184 183 180 201 171 172 166 180 165 163 155 159 156 156 155 81 99 133 135 142 158 158 158 159 159 161 154 150 151 150 145 143 147 148 155 153 155 162 166 163 163 163 162 161 162 162 163 163 164 163 163 163 159 158 155 164 165 144 148 148 140
260 266 279 285 292 298 304 295 283 275 281 278 264 246 238 222 203 195 192 184 180 178 179 182 186 183 184 174 168 158 157 166 176 168 168 166 160 172 166 163 170 201 148 144 148 156 157 159 153 159 160 159 156 151 146 146 150 150 155 151 146 141 139 140 148 147 146 152 158 161 162 164 164 166 166 169 172 156 161 165 156 152 150 149 144
246 256 261 276 282 289 331 334 310 291 280 285 274 247 235 226 214 197 193 187 185 182 185 183 181 182 187 180 178 173 173 180 177 175 162 164 153 164 164 171 163 152 221 130 131 133 148 161 155 160 165 166 162 155 152 152 156 158 154 151 146 145 149 148 148 143 134 149 162 164 176 172 169 168 170 164 160 155 159 157 157 157 156 156 152
219 241 252 271 277 284 309 319 308 299 295 296 289 261 237 226 213 207 197 191 190 190 184 183 183 182 185 182 186 179 174 171 167 169 170 172 163 159 159 143 100 102 82 60 51 104 119 161 164 160 161 163 166 158 154 152 156 160 157 160 154 152 156 153 150 153 150 156 147 149 149 147 144 152 158 164 163 161 161 163 161 161 159 159 157
214 225 236 263 286 299 327 324 313 303 298 293 285 297 283 236 220 201 196 194 192 192 194 185 180 185 187 187 182 179 178 167 163 169 164 146 142 146 164 164 160 151 162 150 136 44 59 95 164 184 152 160 159 158 158 157 157 165 161 165 163 159 156 152 153 154 153 152 147 149 146 142 159 158 165 167 169 170 168 170 162 167 162 161 161
224 219 230 241 266 267 258 269 277 285 285 279 276 276 282 275 226 209 203 194 191 192 195 190 185 186 180 179 186 182 171 161 167 162 151 152 157 160 155 156 129 142 132 162 167 130 290 273 357 154 164 158 165 160 159 154 156 155 155 157 159 159 157 155 154 158 162 163 167 169 163 158 159 160 163 170 177 179 175 171 168 168 165 162 163
223 222 216 226 253 258 255 246 261 274 276 275 279 276 281 279 260 212 202 200 194 192 195 188 185 186 182 179 181 177 168 163 165 168 162 163 160 157 152 143 126 132 156 164 175 186 153 109 158 156 170 154 161 161 151 152 154 151 151 148 153 158 157 158 161 166 172 175 181 180 175 169 168 164 166 173 182 182 181 173 174 170 167 167 164
231 215 227 224 246 259 261 261 268 275 281 287 284 277 273 278 271 243 209 195 198 193 191 189 186 182 180 181 176 178 172 166 169 166 164 159 157 157 162 160 154 157 153 164 183 190 156 151 174 233 193 165 163 156 154 143 145 149 147 145 149 158 165 165 168 172 176 183 186 186 181 176 171 165 166 172 181 183 170 162 168 161 160 158 155
235 219 231 228 239 253 260 265 274 281 289 290 286 277 272 272 279 263 226 201 196 194 187 186 188 182 180 177 177 180 172 167 164 164 164 157 161 165 169 171 169 162 164 173 195 172 179 182 152 210 188 190 153 143 140 150 150 150 144 143 152 158 168 167 169 173 180 186 190 189 184 179 173 166 167 175 179 162 151 153 145 132 127 123 125
248 231 223 234 239 247 250 251 259 266 274 282 284 278 273 270 269 272 248 212 199 199 190 186 183 178 179 180 177 175 171 171 172 168 165 163 163 169 174 176 172 170 174 174 178 184 152 177 152 150 184 189 152 149 140 142 149 141 139 141 150 159 168 168 171 176 182 187 191 190 184 179 172 166 166 165 156 142 131 127 125 124 124 123 123
286 252 236 235 236 242 237 245 239 253 254 261 276 281 276 270 269 270 264 230 204 195 194 189 185 176 176 179 178 177 173 175 169 165 165 164 168 170 172 171 181 183 174 171 152 196 160 171 171 149 156 170 155 138 122 129 152 144 141 145 154 163 162 171 174 179 183 186 189 185 180 173 165 156 149 146 138 132 131 131 130 129 130 129 129
317 294 260 240 228 231 231 231 235 243 247 238 259 284 283 273 270 273 268 248 207 194 194 187 185 178 176 178 178 177 175 173 171 169 167 168 168 169 173 173 182 184 175 165 175 171 178 169 150 143 155 155 148 142 130 134 151 143 136 140 149 150 156 165 174 174 179 179 178 174 167 161 153 146 143 141 138 136 134 134 133 132 132 134 134
312 314 294 268 234 225 226 224 229 236 246 251 252 283 289 281 270 265 274 264 228 198 185 189 182 179 179 179 178 178 173 172 176 170 166 165 167 169 171 172 179 179 171 174 174 142 99 100 142 157 160 143 131 145 132 138 143 129 121 128 137 144 152 157 159 163 165 166 165 163 158 154 148 145 143 140 138 137 136 136 134 133 135 138 140
307 309 308 290 273 236 230 224 224 229 237 254 246 269 286 285 274 262 266 265 242 205 192 185 182 180 181 179 178 176 175 176 174 176 168 164 165 168 174 176 177 174 181 169 173 150 147 139 109 121 149 155 139 160 146 146 141 129 128 128 124 136 147 142 141 154 153 154 155 156 153 150 146 143 141 139 137 136 137 136 136 138 139 139 140
303 307 309 306 289 265 243 233 221 219 225 246 253 263 286 288 282 271 259 260 251 213 193 187 184 182 181 181 179 174 174 174 175 178 173 170 166 168 172 175 175 170 167 166 146 153 148 158 144 139 153 158 147 157 146 140 132 131 130 135 136 131 131 136 134 138 149 148 151 150 148 145 141 140 139 139 139 139 138 139 140 141 140 139 140
303 303 304 303 302 295 276 260 241 220 222 231 262 265 281 287 286 276 265 259 254 225 195 190 186 180 180 179 179 176 174 175 176 175 176 174 173 172 169 172 173 175 168 160 155 146 149 137 170 154 163 145 114 125 129 132 139 136 135 125 122 129 138 135 136 138 150 148 149 149 147 144 142 141 141 141 140 140 140 140 141 140 138 139 140
297 298 297 296 296 296 286 270 266 254 234 241 265 282 284 284 284 279 268 259 253 234 201 184 183 181 180 179 175 174 176 174 173 175 177 178 179 174 175 171 169 168 166 162 155 149 149 153 154 156 152 145 143 151 151 140 121 104 113 134 144 141 130 129 126 141 146 147 149 150 148 146 143 142 141 141 141 142 142 142 142 140 141 143 145
297 298 294 294 291 292 294 288 279 273 265 251 260 274 287 290 287 280 270 256 251 236 205 186 179 184 178 179 173 173 175 176 176 179 177 179 176 176 175 173 168 160 162 159 152 156 155 156 151 143 155 142 133 156 163 146 139 130 111 99 102 126 131 119 128 136 136 141 146 147 146 144 144 142 142 142 143 143 144 145 144 145 146 148 150
294 297 299 294 290 289 287 286 279 274 272 266 267 273 281 286 285 282 273 259 249 234 209 187 182 184 180 177 176 177 178 178 176 175 174 176 178 178 175 171 168 163 164 160 153 154 154 151 158 157 153 158 154 158 175 155 148 153 147 139 126 141 131 141 140 131 124 118 127 139 143 145 143 141 142 141 141 145 148 148 148 149 151 152 152
290 290 294 293 289 286 284 281 277 275 271 270 266 271 275 279 284 280 273 264 253 235 211 191 184 184 183 181 178 180 181 180 176 175 171 174 174 171 172 168 168 164 165 159 150 151 152 154 155 157 155 147 125 113 135 138 126 119 164 150 154 161 167 164 159 149 143 128 129 121 129 125 127 133 137 143 148 149 149 149 150 151 153 154 155
285 284 284 284 283 281 278 275 275 269 265 263 264 266 274 278 282 286 281 268 254 235 211 193 184 184 184 184 183 182 181 180 178 174 174 173 170 172 173 169 166 163 163 161 156 151 153 152 154 153 152 158 159 152 157 164 163 163 178 173 164 159 147 133 134 151 154 140 132 126 143 148 136 141 138 136 151 149 151 151 153 154 156 158 160
278 278 279 275 274 275 275 271 267 266 263 262 262 262 262 268 277 283 282 276 263 238 210 191 184 182 183 186 189 183 180 180 179 175 173 172 175 176 173 170 165 162 163 162 163 162 157 159 162 160 158 164 165 166 162 173 172 163 162 152 139 140 128 123 131 189 168 144 144 152 168 167 141 141 147 152 163 154 158 159 167 163 162 162 163
272 276 272 268 273 272 271 266 262 260 259 259 259 260 263 267 272 278 281 277 270 247 214 190 183 183 184 185 186 185 181 180 179 178 172 175 176 173 171 172 172 165 162 164 168 165 165 164 163 164 166 166 173 171 173 172 176 170 166 163 158 155 158 156 173 191 226 166 161 154 169 185 155 157 164 160 162 157 162 167 163 166 166 165 164
266 264 268 266 265 268 268 265 257 254 255 253 255 257 259 263 268 272 277 276 270 259 224 194 182 181 183 184 183 181 184 182 180 181 177 176 174 173 173 171 173 172 170 169 165 167 169 164 168 175 167 173 172 176 179 172 167 162 171 164 163 164 165 173 170 181 188 171 152 154 157 193 160 153 162 176 170 169 167 168 170 169 171 170 171
269 260 261 262 261 261 263 265 262 257 253 248 249 252 254 259 265 269 275 274 266 262 235 204 185 180 179 180 182 183 189 182 177 180 180 179 177 175 175 173 175 175 175 174 172 173 172 169 172 175 179 172 173 187 180 172 165 169 168 169 170 173 177 178 185 175 163 165 149 155 167 188 166 170 174 177 170 168 171 176 177 177 178 176 175
274 267 259 257 260 259 260 262 262 260 253 247 247 248 251 254 259 264 270 269 266 259 242 210 187 183 182 179 181 183 181 179 181 180 179 177 178 176 175 176 180 184 178 176 176 171 172 176 174 180 186 172 182 180 176 164 168 175 171 178 175 177 182 191 183 167 159 165 168 160 159 178 177 170 185 186 173 171 178 183 181 183 182 182 180
272 265 257 256 255 255 256 257 257 256 252 246 246 246 248 250 255 262 265 268 263 256 241 214 190 184 184 185 184 181 177 179 184 180 176 175 174 177 179 182 184 185 183 180 176 174 174 172 175 178 174 185 169 153 163 175 178 173 177 177 174 168 134 68 69 106 149 182 160 147 173 182 174 172 194 171 174 176 176 187 187 187 188 187 186
271 270 260 257 258 258 259 255 251 251 251 246 245 245 246 248 252 256 261 262 260 251 236 216 191 183 182 182 180 181 179 180 181 179 177 172 173 177 179 180 182 185 188 185 176 173 173 175 177 177 181 176 167 164 167 164 155 136 117 108 109 126 138 137 130 148 165 189 182 173 145 171 181 183 177 157 158 173 179 189 195 192 193 191 189
265 266 267 258 258 260 261 256 250 250 249 245 242 242 242 244 245 248 253 256 252 246 231 213 190 178 178 179 178 179 178 183 180 178 176 169 172 174 174 174 176 178 183 175 175 172 172 173 174 174 170 169 168 168 166 162 160 145 127 133 159 152 154 154 154 158 182 178 196 193 139 159 184 177 148 168 174 175 179 189 196 195 193 193 193
275 273 257 253 252 252 256 259 253 252 250 244 240 237 236 237 235 240 244 247 245 236 227 211 195 177 177 181 177 175 179 183 179 180 172 168 172 173 172 170 171 176 177 167 159 167 163 161 164 167 170 171 166 162 164 165 161 156 160 175 170 164 175 172 173 180 163 180 190 167 137 176 157 151 114 109 115 180 185 189 188 196 195 195 194
266 266 266 265 266 263 261 260 257 250 247 244 237 235 233 231 231 235 240 241 237 227 212 205 195 179 176 179 180 178 181 184 179 178 175 173 173 174 173 171 176 181 181 167 161 156 159 157 163 163 172 168 158 161 168 167 169 172 178 172 161 171 173 175 155 128 130 202 200 177 171 158 160 174 148 125 187 237 191 182 188 188 187 188 192